FSF345 LFMD-LIEO

Flight info

Callsign FSF345
Flight time 0h 57m
Altitude 23000
Route LONSU DCT BEBEV DCT AJO A9 CORSI
Aircraft PC12/L-SDFGRWY/S

Departure

Time 2026-05-05 17:00
Airport Cannes Mandelieu Airport (LFMD)

Arrival

Time 2026-05-05 17:58
Airport Olbia Costa Smeralda Airport (LIEO)
Time Latitude Longitude Altitude Speed Heading
2026-05-05 16:18 43.54654 6.95328 14 ft 0 kts 173°
2026-05-05 16:56 43.54650 6.95328 14 ft 1 kts 204°
2026-05-05 16:56 43.54647 6.95289 14 ft 6 kts 316°
2026-05-05 16:57 43.54693 6.95274 14 ft 8 kts 351°
2026-05-05 16:57 43.54752 6.95263 14 ft 11 kts 353°
2026-05-05 16:57 43.54811 6.95253 14 ft 11 kts 352°
2026-05-05 16:57 43.54898 6.95236 14 ft 12 kts 349°
2026-05-05 16:58 43.54984 6.95220 14 ft 9 kts 337°
2026-05-05 16:58 43.55003 6.95165 14 ft 0 kts 265°
2026-05-05 16:59 43.54997 6.95097 12 ft 9 kts 264°
2026-05-05 16:59 43.54975 6.95053 12 ft 0 kts 173°
2026-05-05 16:59 43.54843 6.95076 12 ft 50 kts 172°
2026-05-05 17:00 43.54311 6.95169 63 ft 94 kts 170°
2026-05-05 17:00 43.53636 6.95307 464 ft 99 kts 168°
2026-05-05 17:00 43.52937 6.95448 966 ft 103 kts 166°
2026-05-05 17:00 43.52241 6.95895 1383 ft 120 kts 150°
2026-05-05 17:01 43.51503 6.96444 1941 ft 127 kts 154°
2026-05-05 17:01 43.50578 6.97072 2003 ft 167 kts 156°
2026-05-05 17:01 43.49426 6.97873 2014 ft 200 kts 147°
2026-05-05 17:01 43.48452 6.99212 2077 ft 191 kts 132°
2026-05-05 17:02 43.47641 7.00516 2518 ft 170 kts 133°
2026-05-05 17:02 43.46913 7.01657 3090 ft 148 kts 134°
2026-05-05 17:02 43.46252 7.02694 3702 ft 141 kts 134°
2026-05-05 17:02 43.45603 7.03709 4333 ft 143 kts 135°
2026-05-05 17:03 43.44930 7.04757 4981 ft 149 kts 136°
2026-05-05 17:03 43.44232 7.05846 5629 ft 154 kts 136°
2026-05-05 17:03 43.43527 7.06947 6281 ft 157 kts 137°
2026-05-05 17:03 43.42802 7.08078 6903 ft 158 kts 137°
2026-05-05 17:04 43.42080 7.09206 7582 ft 156 kts 137°
2026-05-05 17:04 43.41369 7.10319 8297 ft 154 kts 137°
2026-05-05 17:04 43.40635 7.11461 8832 ft 168 kts 138°
2026-05-05 17:04 43.39783 7.12764 8972 ft 201 kts 137°
2026-05-05 17:05 43.38839 7.14238 9415 ft 193 kts 137°
2026-05-05 17:05 43.38025 7.15537 10323 ft 170 kts 139°
2026-05-05 17:05 43.37256 7.16738 11055 ft 168 kts 141°
2026-05-05 17:05 43.36454 7.17965 11549 ft 180 kts 141°
2026-05-05 17:06 43.35544 7.19352 11643 ft 211 kts 139°
2026-05-05 17:06 43.34523 7.20937 11642 ft 226 kts 138°
2026-05-05 17:06 43.33488 7.22568 11813 ft 227 kts 138°
2026-05-05 17:06 43.32454 7.24184 12277 ft 225 kts 139°
2026-05-05 17:07 43.31415 7.25793 12649 ft 226 kts 139°
2026-05-05 17:07 43.30381 7.27393 13011 ft 227 kts 140°
2026-05-05 17:07 43.29361 7.29076 13349 ft 229 kts 138°
2026-05-05 17:07 43.28315 7.30724 13700 ft 229 kts 140°
2026-05-05 17:08 43.27256 7.32378 14017 ft 230 kts 139°
2026-05-05 17:08 43.26209 7.34052 14332 ft 231 kts 139°
2026-05-05 17:08 43.25162 7.35731 14627 ft 232 kts 139°
2026-05-05 17:08 43.24110 7.37413 14930 ft 233 kts 139°
2026-05-05 17:09 43.23053 7.39100 15271 ft 231 kts 139°
2026-05-05 17:09 43.22031 7.40737 15715 ft 227 kts 140°
2026-05-05 17:09 43.20981 7.42406 16076 ft 229 kts 140°
2026-05-05 17:09 43.19943 7.44060 16441 ft 229 kts 140°
2026-05-05 17:10 43.18913 7.45699 16797 ft 230 kts 140°
2026-05-05 17:10 43.17852 7.47389 17152 ft 231 kts 140°
2026-05-05 17:10 43.16797 7.49067 17629 ft 232 kts 140°
2026-05-05 17:10 43.15742 7.50746 18091 ft 233 kts 140°
2026-05-05 17:11 43.14691 7.52415 18516 ft 235 kts 140°
2026-05-05 17:11 43.13605 7.54140 18975 ft 237 kts 140°
2026-05-05 17:11 43.12523 7.55856 19411 ft 239 kts 140°
2026-05-05 17:11 43.11444 7.57605 19846 ft 244 kts 136°
2026-05-05 17:12 43.10598 7.59652 20265 ft 257 kts 122°
2026-05-05 17:12 43.10106 7.62052 20696 ft 268 kts 107°
2026-05-05 17:12 43.09809 7.64590 21120 ft 271 kts 107°
2026-05-05 17:12 43.09498 7.67138 21546 ft 273 kts 108°
2026-05-05 17:13 43.09180 7.69714 21953 ft 275 kts 107°
2026-05-05 17:13 43.08863 7.72306 22343 ft 277 kts 107°
2026-05-05 17:13 43.08525 7.74910 22703 ft 277 kts 111°
2026-05-05 17:13 43.07873 7.77309 22935 ft 273 kts 126°
2026-05-05 17:14 43.06823 7.79451 22936 ft 268 kts 140°
2026-05-05 17:14 43.05506 7.81139 22932 ft 251 kts 153°
2026-05-05 17:14 43.04054 7.82353 22928 ft 243 kts 161°
2026-05-05 17:14 43.02539 7.83491 22938 ft 254 kts 160°
2026-05-05 17:15 43.00960 7.84699 22944 ft 263 kts 159°
2026-05-05 17:15 42.99338 7.85946 22945 ft 268 kts 159°
2026-05-05 17:15 42.97700 7.87198 22942 ft 271 kts 159°
2026-05-05 17:15 42.96047 7.88458 22945 ft 273 kts 159°
2026-05-05 17:16 42.94383 7.89724 22931 ft 274 kts 159°
2026-05-05 17:16 42.92716 7.90993 22934 ft 274 kts 159°
2026-05-05 17:16 42.91050 7.92261 22934 ft 274 kts 159°
2026-05-05 17:16 42.89385 7.93526 22935 ft 274 kts 159°
2026-05-05 17:17 42.87745 7.94772 22939 ft 274 kts 159°
2026-05-05 17:17 42.86061 7.96051 22938 ft 274 kts 159°
2026-05-05 17:17 42.84397 7.97313 22920 ft 273 kts 159°
2026-05-05 17:17 42.82756 7.98557 22929 ft 273 kts 159°
2026-05-05 17:18 42.81092 7.99818 22929 ft 274 kts 159°
2026-05-05 17:18 42.79428 8.01078 22929 ft 274 kts 159°
2026-05-05 17:18 42.77761 8.02340 22929 ft 274 kts 159°
2026-05-05 17:18 42.76093 8.03605 22929 ft 274 kts 159°
2026-05-05 17:19 42.74431 8.04871 22930 ft 274 kts 159°
2026-05-05 17:19 42.72764 8.06138 22925 ft 273 kts 159°
2026-05-05 17:19 42.71103 8.07398 22922 ft 274 kts 159°
2026-05-05 17:19 42.69436 8.08663 22930 ft 275 kts 159°
2026-05-05 17:20 42.67764 8.09931 22928 ft 275 kts 159°
2026-05-05 17:20 42.66093 8.11197 22928 ft 275 kts 159°
2026-05-05 17:20 42.64422 8.12463 22929 ft 275 kts 159°
2026-05-05 17:20 42.62769 8.13713 22929 ft 275 kts 159°
2026-05-05 17:21 42.61097 8.14978 22932 ft 275 kts 159°
2026-05-05 17:21 42.59424 8.16242 22932 ft 275 kts 159°
2026-05-05 17:21 42.57747 8.17509 22923 ft 275 kts 159°
2026-05-05 17:22 42.54400 8.20035 22932 ft 275 kts 159°
2026-05-05 17:22 42.52727 8.21297 22932 ft 275 kts 159°
2026-05-05 17:22 42.51056 8.22556 22927 ft 275 kts 159°
2026-05-05 17:22 42.49382 8.23816 22925 ft 275 kts 159°
2026-05-05 17:23 42.47711 8.25074 22930 ft 275 kts 159°
2026-05-05 17:23 42.46058 8.26317 22931 ft 275 kts 159°
2026-05-05 17:23 42.44383 8.27577 22929 ft 275 kts 159°
2026-05-05 17:23 42.42707 8.28835 22926 ft 275 kts 159°
2026-05-05 17:24 42.41036 8.30090 22930 ft 275 kts 159°
2026-05-05 17:24 42.39366 8.31343 22933 ft 275 kts 159°
2026-05-05 17:24 42.37692 8.32599 22931 ft 275 kts 159°
2026-05-05 17:24 42.36016 8.33854 22933 ft 275 kts 159°
2026-05-05 17:25 42.34345 8.35105 22929 ft 275 kts 159°
2026-05-05 17:25 42.33236 8.35935 22928 ft 275 kts 159°
2026-05-05 17:25 42.30997 8.37611 22928 ft 275 kts 159°
2026-05-05 17:25 42.29324 8.38861 22929 ft 274 kts 158°
2026-05-05 17:26 42.27654 8.40109 22928 ft 275 kts 158°
2026-05-05 17:26 42.25984 8.41356 22928 ft 275 kts 158°
2026-05-05 17:26 42.24307 8.42607 22929 ft 275 kts 158°
2026-05-05 17:26 42.22634 8.43855 22928 ft 275 kts 158°
2026-05-05 17:27 42.20960 8.45102 22934 ft 275 kts 158°
2026-05-05 17:27 42.19284 8.46346 22933 ft 275 kts 159°
2026-05-05 17:27 42.17607 8.47590 22934 ft 275 kts 159°
2026-05-05 17:27 42.15930 8.48834 22938 ft 275 kts 158°
2026-05-05 17:28 42.14278 8.50059 22944 ft 275 kts 159°
2026-05-05 17:28 42.12598 8.51304 22948 ft 275 kts 159°
2026-05-05 17:28 42.10922 8.52546 22952 ft 275 kts 159°
2026-05-05 17:28 42.09245 8.53786 22951 ft 275 kts 159°
2026-05-05 17:29 42.07567 8.55027 22950 ft 276 kts 158°
2026-05-05 17:29 42.05881 8.56273 22952 ft 277 kts 158°
2026-05-05 17:29 42.04189 8.57523 22954 ft 278 kts 158°
2026-05-05 17:29 42.02490 8.58778 22956 ft 278 kts 158°
2026-05-05 17:30 42.01359 8.59613 22958 ft 279 kts 158°
2026-05-05 17:30 41.99636 8.60883 22961 ft 279 kts 158°
2026-05-05 17:30 41.97933 8.62138 22961 ft 279 kts 158°
2026-05-05 17:30 41.96231 8.63392 22961 ft 279 kts 158°
2026-05-05 17:31 41.94522 8.64650 22969 ft 280 kts 158°
2026-05-05 17:31 41.92818 8.65904 22968 ft 280 kts 158°
2026-05-05 17:31 41.91112 8.67159 22972 ft 279 kts 158°
2026-05-05 17:31 41.89407 8.68411 22969 ft 279 kts 158°
2026-05-05 17:32 41.87702 8.69663 22969 ft 279 kts 158°
2026-05-05 17:32 41.86021 8.70896 22962 ft 279 kts 158°
2026-05-05 17:32 41.84319 8.72144 22955 ft 279 kts 158°
2026-05-05 17:32 41.82607 8.73399 22961 ft 280 kts 158°
2026-05-05 17:33 41.80892 8.74656 22961 ft 281 kts 158°
2026-05-05 17:33 41.79174 8.75914 22959 ft 282 kts 158°
2026-05-05 17:33 41.77439 8.77127 22955 ft 278 kts 165°
2026-05-05 17:33 41.75614 8.77641 22962 ft 269 kts 180°
2026-05-05 17:34 41.73753 8.77805 22969 ft 267 kts 184°
2026-05-05 17:34 41.71892 8.77907 22970 ft 268 kts 183°
2026-05-05 17:34 41.70033 8.78058 22972 ft 268 kts 182°
2026-05-05 17:34 41.68167 8.78233 22970 ft 268 kts 182°
2026-05-05 17:35 41.66304 8.78399 22968 ft 268 kts 182°
2026-05-05 17:35 41.64443 8.78556 22954 ft 268 kts 182°
2026-05-05 17:35 41.62577 8.78715 22955 ft 269 kts 182°
2026-05-05 17:35 41.60706 8.78876 22956 ft 270 kts 182°
2026-05-05 17:36 41.58820 8.79042 22961 ft 271 kts 181°
2026-05-05 17:36 41.56916 8.79375 22618 ft 282 kts 175°
2026-05-05 17:36 41.55082 8.80397 22092 ft 288 kts 156°
2026-05-05 17:36 41.53335 8.81609 21612 ft 280 kts 161°
2026-05-05 17:37 41.51577 8.82697 21145 ft 277 kts 162°
2026-05-05 17:37 41.49819 8.83754 20688 ft 278 kts 162°
2026-05-05 17:37 41.48075 8.84794 20251 ft 278 kts 162°
2026-05-05 17:37 41.46287 8.85856 19813 ft 278 kts 162°
2026-05-05 17:38 41.44544 8.86887 19393 ft 278 kts 162°
2026-05-05 17:38 41.42791 8.87924 19176 ft 274 kts 162°
2026-05-05 17:38 41.41024 8.88960 18876 ft 281 kts 162°
2026-05-05 17:38 41.39224 8.90006 18520 ft 283 kts 162°
2026-05-05 17:39 41.37425 8.91048 18154 ft 280 kts 162°
2026-05-05 17:39 41.35642 8.92081 17773 ft 278 kts 162°
2026-05-05 17:39 41.33870 8.93108 17416 ft 279 kts 162°
2026-05-05 17:39 41.32079 8.94140 17057 ft 281 kts 162°
2026-05-05 17:40 41.30303 8.95155 16988 ft 275 kts 163°
2026-05-05 17:40 41.28540 8.96136 16800 ft 275 kts 163°
2026-05-05 17:40 41.26754 8.97004 16607 ft 269 kts 174°
2026-05-05 17:40 41.24914 8.96922 16280 ft 265 kts 193°
2026-05-05 17:41 41.23100 8.96504 15915 ft 262 kts 192°
2026-05-05 17:41 41.21299 8.96296 15536 ft 260 kts 186°
2026-05-05 17:41 41.19501 8.96329 15179 ft 256 kts 183°
2026-05-05 17:41 41.17714 8.96379 14817 ft 257 kts 184°
2026-05-05 17:42 41.15931 8.96368 14452 ft 256 kts 185°
2026-05-05 17:42 41.14147 8.96345 14087 ft 256 kts 185°
2026-05-05 17:42 41.12364 8.96336 13713 ft 256 kts 185°
2026-05-05 17:42 41.10589 8.96330 13331 ft 254 kts 185°
2026-05-05 17:43 41.08825 8.96324 12970 ft 252 kts 185°
2026-05-05 17:43 41.07097 8.96315 12609 ft 251 kts 184°
2026-05-05 17:43 41.05350 8.96306 12258 ft 251 kts 184°
2026-05-05 17:43 41.03614 8.96299 11899 ft 249 kts 184°
2026-05-05 17:44 41.01885 8.96291 11541 ft 248 kts 184°
2026-05-05 17:44 41.00166 8.96283 11192 ft 246 kts 184°
2026-05-05 17:44 40.98454 8.96276 10848 ft 245 kts 184°
2026-05-05 17:44 40.96762 8.96268 10502 ft 242 kts 184°
2026-05-05 17:45 40.95080 8.96260 10161 ft 242 kts 184°
2026-05-05 17:45 40.93388 8.96250 9810 ft 242 kts 184°
2026-05-05 17:45 40.91713 8.96244 9447 ft 238 kts 184°
2026-05-05 17:45 40.90060 8.96238 9106 ft 238 kts 184°
2026-05-05 17:46 40.88426 8.96229 8775 ft 236 kts 184°
2026-05-05 17:46 40.86783 8.96222 8437 ft 236 kts 183°
2026-05-05 17:46 40.85143 8.96212 8090 ft 234 kts 183°
2026-05-05 17:46 40.83505 8.96207 7765 ft 235 kts 183°
2026-05-05 17:47 40.81868 8.96200 7437 ft 235 kts 183°
2026-05-05 17:47 40.80243 8.96193 7097 ft 231 kts 183°
2026-05-05 17:47 40.78644 8.96184 6764 ft 228 kts 183°
2026-05-05 17:47 40.77060 8.96176 6441 ft 229 kts 183°
2026-05-05 17:48 40.75464 8.96265 6096 ft 232 kts 174°
2026-05-05 17:48 40.73962 8.96917 6005 ft 230 kts 159°
2026-05-05 17:48 40.72607 8.98055 5977 ft 227 kts 148°
2026-05-05 17:48 40.71346 8.99242 5976 ft 225 kts 149°
2026-05-05 17:49 40.70052 9.00433 5981 ft 225 kts 149°
2026-05-05 17:49 40.68777 9.01615 5980 ft 226 kts 149°
2026-05-05 17:49 40.67532 9.02880 5969 ft 229 kts 136°
2026-05-05 17:49 40.66772 9.04762 5954 ft 240 kts 110°
2026-05-05 17:50 40.66664 9.06973 5971 ft 246 kts 84°
2026-05-05 17:50 40.67296 9.09076 5966 ft 249 kts 58°
2026-05-05 17:50 40.68272 9.10956 5979 ft 246 kts 56°
2026-05-05 17:50 40.69249 9.12803 5982 ft 246 kts 56°
2026-05-05 17:51 40.70213 9.14673 5978 ft 247 kts 57°
2026-05-05 17:51 40.71177 9.16552 5980 ft 248 kts 57°
2026-05-05 17:51 40.72150 9.18440 5977 ft 248 kts 56°
2026-05-05 17:51 40.73123 9.20324 5653 ft 241 kts 57°
2026-05-05 17:52 40.74039 9.22102 5369 ft 236 kts 57°
2026-05-05 17:52 40.75015 9.23881 5393 ft 242 kts 50°
2026-05-05 17:52 40.76154 9.25552 5257 ft 250 kts 52°
2026-05-05 17:52 40.77159 9.27435 4887 ft 257 kts 57°
2026-05-05 17:53 40.78150 9.29385 4489 ft 250 kts 57°
2026-05-05 17:53 40.79094 9.31191 4109 ft 228 kts 57°
2026-05-05 17:53 40.79963 9.32849 3831 ft 208 kts 57°
2026-05-05 17:53 40.80783 9.34409 3466 ft 201 kts 57°
2026-05-05 17:54 40.81564 9.35903 3144 ft 197 kts 57°
2026-05-05 17:54 40.82318 9.37349 2840 ft 183 kts 57°
2026-05-05 17:54 40.83039 9.38706 2549 ft 174 kts 57°
2026-05-05 17:54 40.83681 9.39922 2305 ft 154 kts 55°
2026-05-05 17:55 40.84265 9.41037 2079 ft 142 kts 56°
2026-05-05 17:55 40.84820 9.42095 1858 ft 139 kts 54°
2026-05-05 17:55 40.85370 9.43144 1632 ft 139 kts 53°
2026-05-05 17:55 40.85896 9.44150 1416 ft 124 kts 53°
2026-05-05 17:56 40.86349 9.45022 1230 ft 107 kts 53°
2026-05-05 17:56 40.86756 9.45797 1081 ft 102 kts 53°
2026-05-05 17:56 40.87175 9.46588 951 ft 107 kts 53°
2026-05-05 17:56 40.87635 9.47465 836 ft 122 kts 53°
2026-05-05 17:57 40.88068 9.48320 635 ft 105 kts 54°
2026-05-05 17:57 40.88491 9.49134 436 ft 110 kts 53°
2026-05-05 17:57 40.88917 9.49958 259 ft 110 kts 55°
2026-05-05 17:57 40.89348 9.50773 74 ft 105 kts 56°
2026-05-05 17:58 40.89713 9.51472 31 ft 78 kts 55°
2026-05-05 17:58 40.89933 9.51892 29 ft 40 kts 54°
2026-05-05 17:58 40.90121 9.52035 31 ft 25 kts
2026-05-05 17:58 40.90170 9.52007 31 ft 0 kts 284°
2026-05-05 17:59 40.90172 9.51976 31 ft 9 kts 266°
2026-05-05 17:59 40.90138 9.51891 31 ft 13 kts 235°
2026-05-05 17:59 40.90086 9.51793 31 ft 8 kts 234°
2026-05-05 18:00 40.90033 9.51690 31 ft 20 kts 234°
2026-05-05 18:00 40.89928 9.51490 31 ft 32 kts 236°
2026-05-05 18:00 40.89790 9.51226 31 ft 34 kts 235°
2026-05-05 18:00 40.89653 9.50964 31 ft 37 kts 235°
2026-05-05 18:01 40.89594 9.50725 31 ft 20 kts 323°
2026-05-05 18:01 40.89627 9.50623 31 ft 13 kts 233°
2026-05-05 18:01 40.89598 9.50598 31 ft 2 kts 143°